Starlink 11365

operational
NORAD ID: 62886 Int'l Des: 2025-024 Owner: SPXS Country: US Constellation: starlink
LEOCIRCULAR

About Starlink 11365

Description loading...

Live Position

Loading 3D Globe...

Upcoming Passes

Altitude History

Altitude vs Time

uPlot chart will show altitude changes over time

Two-Line Element Set

1 62886U 25024H 25307.81824348 .00260421 00000-0 19675-2 0 9993
2 62886 43.0013 219.8666 0001829 260.8187 99.2473 15.70871331 43673
Epoch: Nov 3, 2025 • Age: 10 hours

Current Status

Altitude 359.9 km
Velocity 7.70 km/s
Sub-Earth Point 42.13°N, 159.29°W
Launch Date Feb 4, 2025
Age 0.7 years
Type internet

Technical Details

Classification Payload
Mass 960.00 kg
Dry Mass 910.00 kg
Total Mass 960.00 kg
Length 0.30 m
Diameter 4.10 m
Span 29.00 m
Shape Box + pan
Manufacturer SPXS
Bus Type Starlink V2MD
Phase Status In Orbit
Owner/State SPXS/US

Large Constellations

Loading constellations...